EN

Hourly Weather Kyzan

Today, 24 July, Saturday

Time Temperature Precipitation Wind Pressure Humidity
00:00 +28°C° 0 mm 4 mps 752 mmHg 64%
01:00 +27°C° 0 mm 3 mps 752 mmHg 68%
02:00 +27°C° 0 mm 3 mps 752 mmHg 70%
03:00 +27°C° 0 mm 3 mps 753 mmHg 71%
04:00 +27°C° 0 mm 2 mps 753 mmHg 73%
05:00 +27°C° 0 mm 2 mps 753 mmHg 71%
06:00 +28°C° 0 mm 3 mps 754 mmHg 68%
07:00 +28°C° 0 mm 3 mps 754 mmHg 65%
08:00 +30°C° 0 mm 3 mps 754 mmHg 59%
09:00 +31°C° 0 mm 3 mps 754 mmHg 53%
10:00 +33°C° 0 mm 3 mps 754 mmHg 47%
11:00 +34°C° 0 mm 3 mps 754 mmHg 43%
12:00 +36°C° 0 mm 4 mps 754 mmHg 39%
13:00 +37°C° 0 mm 4 mps 754 mmHg 35%
14:00 +37°C° 0 mm 5 mps 754 mmHg 34%
15:00 +37°C° 0 mm 5 mps 754 mmHg 32%
16:00 +39°C° 0 mm 6 mps 754 mmHg 31%
17:00 +36°C° 0 mm 7 mps 755 mmHg 36%
18:00 +34°C° 0 mm 7 mps 755 mmHg 41%
19:00 +33°C° 0 mm 7 mps 755 mmHg 46%
20:00 +32°C° 0 mm 7 mps 756 mmHg 49%
21:00 +30°C° 0 mm 6 mps 756 mmHg 53%
22:00 +29°C° 0 mm 6 mps 757 mmHg 57%
23:00 +29°C° 0 mm 5 mps 757 mmHg 57%

Tomorrow, 25 July, Sunday

Time Temperature Precipitation Wind Pressure Humidity
00:00 +29°C° 0 mm 5 mps 757 mmHg 57%
01:00 +29°C° 0 mm 5 mps 757 mmHg 57%
02:00 +29°C° 0 mm 4 mps 758 mmHg 55%
03:00 +29°C° 0 mm 4 mps 758 mmHg 54%
04:00 +28°C° 0 mm 4 mps 758 mmHg 53%
05:00 +29°C° 0 mm 5 mps 758 mmHg 47%
06:00 +29°C° 0 mm 5 mps 759 mmHg 42%
07:00 +30°C° 0 mm 5 mps 759 mmHg 36%
08:00 +32°C° 0 mm 6 mps 759 mmHg 32%
09:00 +34°C° 0 mm 6 mps 760 mmHg 27%
10:00 +35°C° 0 mm 6 mps 760 mmHg 23%
11:00 +36°C° 0 mm 6 mps 760 mmHg 21%
12:00 +38°C° 0 mm 6 mps 760 mmHg 19%
13:00 +39°C° 0 mm 5 mps 760 mmHg 18%
14:00 +39°C° 0 mm 6 mps 760 mmHg 18%
15:00 +39°C° 0 mm 7 mps 759 mmHg 18%
16:00 +39°C° 0 mm 8 mps 759 mmHg 18%
17:00 +38°C° 0 mm 8 mps 760 mmHg 19%
18:00 +35°C° 0 mm 7 mps 760 mmHg 20%
19:00 +34°C° 0 mm 7 mps 760 mmHg 21%
20:00 +33°C° 0 mm 7 mps 760 mmHg 25%
21:00 +32°C° 0 mm 6 mps 761 mmHg 29%
22:00 +30°C° 0 mm 6 mps 761 mmHg 33%
23:00 +30°C° 0 mm 6 mps 761 mmHg 36%

Day after tomorrow, 26 July, Monday

Time Temperature Precipitation Wind Pressure Humidity
00:00 +30°C° 0 mm 5 mps 761 mmHg 40%
01:00 +29°C° 0 mm 5 mps 761 mmHg 44%
02:00 +29°C° 0 mm 5 mps 761 mmHg 38%
03:00 +29°C° 0 mm 4 mps 761 mmHg 33%
04:00 +29°C° 0 mm 4 mps 761 mmHg 27%
05:00 +29°C° 0 mm 4 mps 761 mmHg 26%
06:00 +30°C° 0 mm 4 mps 761 mmHg 26%
07:00 +30°C° 0 mm 4 mps 762 mmHg 25%
08:00 +33°C° 0 mm 4 mps 762 mmHg 22%
09:00 +35°C° 0 mm 4 mps 761 mmHg 18%
10:00 +37°C° 0 mm 4 mps 761 mmHg 15%
11:00 +38°C° 0 mm 4 mps 761 mmHg 15%
12:00 +39°C° 0 mm 3 mps 761 mmHg 14%
13:00 +40°C° 0 mm 3 mps 761 mmHg 13%
14:00 +41°C° 0 mm 4 mps 760 mmHg 13%
15:00 +41°C° 0 mm 5 mps 760 mmHg 13%
16:00 +42°C° 0 mm 6 mps 759 mmHg 13%
17:00 +40°C° 0 mm 7 mps 760 mmHg 15%
18:00 +39°C° 0 mm 8 mps 760 mmHg 17%
19:00 +37°C° 0 mm 9 mps 760 mmHg 19%
20:00 +35°C° 0 mm 8 mps 760 mmHg 24%
21:00 +33°C° 0 mm 8 mps 760 mmHg 30%
22:00 +32°C° 0 mm 8 mps 760 mmHg 35%
23:00 +32°C° 0 mm 7 mps 760 mmHg 35%

27 July, Tuesday

Time Temperature Precipitation Wind Pressure Humidity
00:00 +32°C° 0 mm 6 mps 760 mmHg 35%
01:00 +32°C° 0 mm 5 mps 759 mmHg 36%
02:00 +30°C° 0.2 mm 5 mps 759 mmHg 36%
03:00 +29°C° 0.2 mm 4 mps 760 mmHg 36%
04:00 +28°C° 0.2 mm 3 mps 760 mmHg 37%
05:00 +28°C° 0.2 mm 4 mps 760 mmHg 34%
06:00 +29°C° 0.2 mm 5 mps 760 mmHg 31%
07:00 +29°C° 0.2 mm 6 mps 760 mmHg 29%
08:00 +29°C° 0 mm 5 mps 760 mmHg 28%
09:00 +30°C° 0 mm 5 mps 760 mmHg 27%
10:00 +32°C° 0 mm 4 mps 760 mmHg 26%
11:00 +33°C° 0 mm 4 mps 759 mmHg 25%
12:00 +34°C° 0 mm 4 mps 759 mmHg 24%
13:00 +35°C° 0 mm 3 mps 759 mmHg 23%
14:00 +36°C° 0.1 mm 4 mps 759 mmHg 23%
15:00 +36°C° 0.1 mm 5 mps 758 mmHg 22%
16:00 +36°C° 0.1 mm 5 mps 758 mmHg 22%
17:00 +36°C° 0 mm 6 mps 758 mmHg 21%
18:00 +35°C° 0 mm 7 mps 758 mmHg 20%
19:00 +35°C° 0 mm 8 mps 758 mmHg 19%
20:00 +34°C° 0 mm 8 mps 758 mmHg 20%
21:00 +33°C° 0 mm 7 mps 758 mmHg 21%
22:00 +32°C° 0 mm 7 mps 758 mmHg 22%
23:00 +32°C° 0.2 mm 7 mps 758 mmHg 24%

28 July, Wednesday

Time Temperature Precipitation Wind Pressure Humidity
00:00 +30°C° 0.2 mm 6 mps 758 mmHg 25%
01:00 +29°C° 0.2 mm 6 mps 758 mmHg 27%
02:00 +29°C° 0.1 mm 6 mps 758 mmHg 27%
03:00 +28°C° 0.1 mm 6 mps 758 mmHg 26%
04:00 +28°C° 0.1 mm 6 mps 758 mmHg 26%
05:00 +28°C° 0 mm 7 mps 758 mmHg 26%
06:00 +28°C° 0 mm 7 mps 758 mmHg 25%
07:00 +28°C° 0 mm 7 mps 758 mmHg 24%
08:00 +28°C° 0 mm 6 mps 758 mmHg 24%
09:00 +29°C° 0 mm 6 mps 758 mmHg 23%
10:00 +29°C° 0 mm 5 mps 758 mmHg 23%
11:00 +29°C° 0 mm 5 mps 759 mmHg 24%
12:00 +29°C° 0 mm 5 mps 759 mmHg 26%
13:00 +29°C° 0 mm 5 mps 759 mmHg 28%
14:00 +29°C° 0 mm 4 mps 759 mmHg 27%
15:00 +29°C° 0 mm 4 mps 759 mmHg 26%
16:00 +29°C° 0 mm 4 mps 758 mmHg 26%
17:00 +29°C° 0 mm 3 mps 759 mmHg 27%
18:00 +29°C° 0 mm 2 mps 759 mmHg 28%
19:00 +28°C° 0 mm 2 mps 759 mmHg 29%
20:00 +28°C° 0 mm 2 mps 759 mmHg 31%
21:00 +28°C° 0 mm 2 mps 759 mmHg 33%
22:00 +28°C° 0 mm 3 mps 759 mmHg 35%
23:00 +27°C° 0 mm 3 mps 759 mmHg 36%

29 July, Thursday

Time Temperature Precipitation Wind Pressure Humidity
00:00 +27°C° 0 mm 4 mps 759 mmHg 38%
01:00 +27°C° 0 mm 5 mps 758 mmHg 40%
02:00 +26°C° 0 mm 5 mps 758 mmHg 42%
03:00 +26°C° 0 mm 4 mps 758 mmHg 45%
04:00 +26°C° 0 mm 4 mps 758 mmHg 47%
05:00 +27°C° 0 mm 4 mps 758 mmHg 44%
06:00 +27°C° 0 mm 5 mps 758 mmHg 41%
07:00 +28°C° 0 mm 6 mps 758 mmHg 38%
08:00 +30°C° 0 mm 7 mps 758 mmHg 33%
09:00 +32°C° 0 mm 8 mps 758 mmHg 28%
10:00 +33°C° 0 mm 9 mps 758 mmHg 23%
11:00 +34°C° 0 mm 9 mps 758 mmHg 21%
12:00 +34°C° 0 mm 9 mps 758 mmHg 20%
13:00 +35°C° 0 mm 9 mps 758 mmHg 18%
14:00 +35°C° 0 mm 9 mps 758 mmHg 19%
15:00 +35°C° 0 mm 9 mps 758 mmHg 20%
16:00 +35°C° 0 mm 9 mps 758 mmHg 20%
17:00 +34°C° 0 mm 9 mps 758 mmHg 22%
18:00 +34°C° 0 mm 9 mps 758 mmHg 23%
19:00 +33°C° 0 mm 8 mps 758 mmHg 24%
20:00 +32°C° 0 mm 8 mps 759 mmHg 28%
21:00 +31°C° 0 mm 8 mps 759 mmHg 32%
22:00 +29°C° 0 mm 8 mps 760 mmHg 35%
23:00 +28°C° 0 mm 6 mps 760 mmHg 40%
Show more